Weather History for KMBG - December, 2012

Change the Weather History Date:

Tuesday, December 4, 2012

  Actual Average Record
Temperature  
Mean Temperature 26 °F 22 °F  
Max Temperature 35 °F 32 °F 69 °F (1965)
Min Temperature 16 °F 11 °F -24 °F (1927)
Degree Days  
Heating Degree Days 39 43  
Month to date heating degree days 115 170  
Since 1 July heating degree days 1862 1936  
Cooling Degree Days 0 0  
Month to date cooling degree days 0 0  
Year to date cooling degree days 866 644  
Moisture  
Dew Point 17 °F    
Average Humidity 76    
Maximum Humidity 100    
Minimum Humidity 51    
Precipitation  
Precipitation 0.00 in 0.01 in 0.67 in (1960)
Month to date precipitation T 0.03  
Year to date precipitation 13.17 17.46  
Snow  
Snow 0.00 in - - ()
Month to date snowfall 0.0  
Since 1 July snowfall 0.5  
Snow Depth 0.00 in    
Sea Level Pressure  
Sea Level Pressure 30.20 in    
Wind  
Wind Speed 7 mph (ENE)    
Max Wind Speed 17 mph    
Max Gust Speed 21 mph    
Visibility 10 miles    
Events      
T = Trace of Precipitation, MM = Missing Value Source: NWS Daily Summary

Daily Weather History Graph

Daily Weather History Graph

Search for Another Location

Airport or City:

Trip Planner

Search our weather history database for the weather conditions in past years. The results will help you decide how hot, cold, wet, or windy it might be!

Date:

Astronomy

Dec. 04, 2012 Rise Set
Actual Time 8:05 AM CST 4:58 PM CST
Civil Twilight 7:31 AM CST 5:32 PM CST
Nautical Twilight 6:54 AM CST 6:09 PM CST
Astronomical Twilight 6:18 AM CST 6:45 PM CST
Moon 10:59 PM CST 11:50 AM CST
Length of Visible Light 10h 00m
Length of Day
8h 53m
Waning Gibbous, 69% of the Moon is Illuminated
Dec 4
Waning Gibbous
Dec 6
Last Quarter
Dec 13
New
Dec 19
First Quarter
Dec 28
Full

Hourly Weather History & Observations

Time (CST) Temp. Windchill Dew Point Humidity Pressure Visibility Wind Dir Wind Speed Gust Speed Precip Events Conditions
12:52 AM 34.0 °F 26.6 °F 19.9 °F 56% 30.01 in 10.0 mi WNW 9.2 mph - N/A   Clear
1:52 AM 30.0 °F 21.1 °F 19.9 °F 66% 30.04 in 10.0 mi North 10.4 mph - N/A   Clear
2:52 AM 27.0 °F 18.0 °F 18.0 °F 69% 30.07 in 10.0 mi North 9.2 mph - N/A   Clear
3:52 AM 25.0 °F 17.1 °F 17.1 °F 72% 30.09 in 10.0 mi North 6.9 mph - N/A   Clear
4:52 AM 25.0 °F 18.1 °F 19.0 °F 78% 30.11 in 10.0 mi NNW 5.8 mph - N/A   Clear
5:52 AM 23.0 °F 15.8 °F 19.0 °F 85% 30.15 in 10.0 mi NNE 5.8 mph - N/A   Clear
6:52 AM 18.0 °F - 17.1 °F 96% 30.19 in 10.0 mi Calm Calm - N/A   Clear
7:52 AM 17.1 °F - 15.1 °F 92% 30.24 in 10.0 mi Calm Calm - N/A   Clear
8:52 AM 21.0 °F - 18.0 °F 88% 30.26 in 10.0 mi Calm Calm - N/A   Clear
9:52 AM 25.0 °F 18.1 °F 18.0 °F 75% 30.29 in 10.0 mi NE 5.8 mph - N/A   Clear
10:52 AM 26.1 °F 18.4 °F 16.0 °F 66% 30.30 in 10.0 mi NNE 6.9 mph - N/A   Clear
11:52 AM 30.0 °F - 17.1 °F 59% 30.28 in 10.0 mi Calm Calm - N/A   Clear
12:52 PM 30.9 °F - 17.1 °F 57% 30.25 in 10.0 mi Calm Calm - N/A   Clear
1:52 PM 33.1 °F - 18.0 °F 54% 30.25 in 10.0 mi Calm Calm - N/A   Clear
2:52 PM 33.1 °F 25.5 °F 17.1 °F 52% 30.24 in 10.0 mi East 9.2 mph - N/A   Clear
3:52 PM 32.0 °F 26.4 °F 17.1 °F 54% 30.25 in 10.0 mi ENE 5.8 mph - N/A   Clear
4:52 PM 30.0 °F 21.7 °F 17.1 °F 59% 30.25 in 10.0 mi East 9.2 mph - N/A   Clear
5:52 PM 30.0 °F 19.5 °F 18.0 °F 61% 30.22 in 10.0 mi East 13.8 mph - N/A   Clear
6:52 PM 28.0 °F 17.0 °F 17.1 °F 63% 30.24 in 10.0 mi East 13.8 mph - N/A   Clear
7:52 PM 26.1 °F 14.5 °F 17.1 °F 69% 30.24 in 10.0 mi SE 13.8 mph - N/A   Clear
8:52 PM 25.0 °F 14.8 °F 16.0 °F 69% 30.23 in 10.0 mi ESE 10.4 mph - N/A   Scattered Clouds
9:52 PM 25.0 °F 12.6 °F 16.0 °F 69% 30.22 in 10.0 mi ESE 15.0 mph - N/A   Mostly Cloudy
10:52 PM 23.0 °F 11.7 °F 15.1 °F 72% 30.21 in 10.0 mi ESE 11.5 mph - N/A   Clear
11:52 PM 21.9 °F 8.7 °F 15.1 °F 75% 30.17 in 10.0 mi ESE 15.0 mph - N/A   Clear